RH
44 46 47 40 31 28 30 42 45 56 75 80 86 70 74 90 91 89 96 97 92 87 59 43 42 43 42 42 44 44 43 45 47 50 50 53 53 57 65 61 60 58 55
37 44 33 29 30 29 35 43 51 74 84 89 93 78 80 90 94 92 88 90 92 83 52 45 44 45 44 47 46 47 50 54 55 57 60 61 62 65 73 71 64 68 63
39 36 32 28 31 34 38 44 55 66 85 80 95 94 91 93 91 89 91 79 76 65 51 46 46 47 51 50 56 54 56 63 68 67 66 70 72 78 82 82 80 81 79
48 39 41 37 39 48 54 60 65 78 77 89 94 99 97 98 90 91 88 75 65 64 54 48 52 56 55 62 68 66 71 80 88 83 74 78 80 82 84 84 85 90 91
48 44 50 54 57 61 63 69 71 77 83 89 99 98 99 98 98 98 94 90 80 61 57 55 60 62 64 67 70 82 89 93 94 93 88 88 87 87 88 86 86 92 93
54 71 78 89 76 81 78 72 83 87 87 96 99 98 97 97 98 97 96 95 96 92 86 85 83 86 83 87 84 87 94 91 90 90 91 88 87 84 87 85 87 91 92
85 93 98 94 92 87 97 90 91 92 92 98 98 98 96 94 95 93 94 94 94 92 88 92 91 90 86 93 96 93 90 90 91 91 90 88 84 86 86 91 93 91 88
97 98 95 97 97 98 99 96 98 98 99 99 98 98 98 97 97 97 94 93 92 92 90 90 92 94 95 97 96 94 91 94 94 93 92 89 89 90 89 89 97 96 92
98 95 95 95 94 94 96 95 95 95 95 97 96 97 97 98 96 94 94 93 92 90 89 90 93 95 98 96 96 94 93 92 92 94 94 92 91 93 95 90 91 87 87
93 93 93 93 91 90 89 87 89 95 97 96 98 96 94 96 93 92 92 93 93 92 91 90 93 92 91 94 94 93 93 93 94 95 98 96 93 90 92 95 91 85 79
89 85 80 76 75 72 71 72 74 77 78 79 80 86 89 87 91 90 92 94 93 92 94 93 94 95 97 93 93 96 96 96 89 93 99 96 92 91 91 92 86 77 73
73 70 67 58 55 54 55 55 55 52 52 55 58 62 65 69 70 70 73 77 77 79 83 85 83 88 91 94 92 93 94 91 90 88 92 95 96 95 98 94 83 78 72
64 57 53 48 44 41 39 37 36 34 33 32 32 35 39 43 46 48 54 58 63 68 73 68 68 72 78 85 86 86 84 81 83 87 87 93 96 92 94 82 80 74 67
41 37 32 28 27 26 25 24 23 23 24 24 25 25 26 26 27 28 32 37 40 44 52 56 59 60 61 63 63 68 71 73 76 78 82 87 91 89 87 83 78 69 62
28 24 18 17 16 14 14 12 12 12 11 11 12 14 17 19 21 24 25 26 27 29 34 38 44 48 55 59 63 65 65 65 71 76 77 84 90 91 88 84 71 73 70
21 16 12 12 12 11 11 10 10 8 9 9 9 9 9 9 9 10 13 19 24 28 31 32 32 35 39 48 56 63 66 70 71 75 77 80 94 93 87 78 77 76 71
19 14 14 13 13 13 12 13 12 13 14 13 13 13 12 11 12 12 12 12 11 12 20 28 35 38 38 40 46 53 58 63 67 73 71 80 81 94 84 84 81 76 69
19 15 15 16 16 14 13 13 12 13 12 12 12 12 12 13 15 16 17 18 18 17 16 15 21 31 39 44 48 53 59 61 62 66 75 88 83 89 92 92 87 81 79
18 15 14 12 12 13 13 12 11 11 12 12 13 14 16 16 17 19 21 21 21 22 24 24 22 21 26 40 50 60 64 65 67 73 76 96 84 89 96 96 90 87 83
13 12 12 11 11 11 11 10 10 10 10 10 12 14 15 17 18 19 21 24 27 28 28 30 30 29 26 24 39 53 66 70 74 76 81 77 98 86 95 95 94 89 86
14 14 13 12 12 12 12 12 12 13 14 12 12 13 13 15 17 19 21 23 27 31 34 38 38 37 36 34 31 43 49 62 76 84 83 88 80 95 83 97 93 89 85
16 15 14 13 13 14 15 15 17 18 17 17 17 14 14 15 16 18 20 24 27 30 35 41 43 44 44 45 44 40 46 49 60 77 89 91 89 91 94 94 94 89 87
18 18 18 18 20 21 23 25 23 25 25 25 24 23 23 23 21 23 23 27 32 38 40 46 47 51 56 51 51 50 49 57 53 59 76 90 95 96 89 98 88 87 83
18 20 21 21 20 23 24 25 24 24 23 25 26 27 27 27 28 31 35 38 41 46 52 55 59 63 60 59 59 60 54 60 63 63 66 82 91 98 90 91 97 92 88
22 23 23 21 19 20 19 20 23 24 25 27 28 28 30 33 34 39 44 48 51 59 62 67 83 81 72 67 69 72 73 72 71 74 72 81 91 88 90 93 90 96 90
21 22 22 21 19 19 20 20 24 25 27 28 32 34 37 39 42 45 47 61 67 71 90 92 89 78 78 80 80 81 74 86 86 87 82 73 76 98 89 93 90 98 89